Year,Month,Day,Hour,Minute,Value (Times are PST for insolation in W/m^2)
2018,07,02,00,00,0.00
2018,07,02,00,01,0.00
2018,07,02,00,02,0.00
2018,07,02,00,03,0.00
2018,07,02,00,04,0.00
2018,07,02,00,05,0.00
2018,07,02,00,06,0.00
2018,07,02,00,07,0.00
2018,07,02,00,08,0.00
2018,07,02,00,09,0.00
2018,07,02,00,10,0.00
2018,07,02,00,11,0.00
2018,07,02,00,12,0.00
2018,07,02,00,13,0.00
2018,07,02,00,14,0.00
2018,07,02,00,15,0.00
2018,07,02,00,16,0.00
2018,07,02,00,17,0.00
2018,07,02,00,18,0.00
2018,07,02,00,19,0.00
2018,07,02,00,20,0.00
2018,07,02,00,21,0.00
2018,07,02,00,22,0.00
2018,07,02,00,23,0.00
2018,07,02,00,24,0.00
2018,07,02,00,25,0.00
2018,07,02,00,26,0.00
2018,07,02,00,27,0.00
2018,07,02,00,28,0.00
2018,07,02,00,29,0.00
2018,07,02,00,30,0.00
2018,07,02,00,31,0.00
2018,07,02,00,32,0.00
2018,07,02,00,33,0.00
2018,07,02,00,34,0.00
2018,07,02,00,35,0.00
2018,07,02,00,36,0.00
2018,07,02,00,37,0.00
2018,07,02,00,38,0.00
2018,07,02,00,39,0.00
2018,07,02,00,40,0.00
2018,07,02,00,41,0.00
2018,07,02,00,42,0.00
2018,07,02,00,43,0.00
2018,07,02,00,44,0.00
2018,07,02,00,45,0.00
2018,07,02,00,46,0.00
2018,07,02,00,47,0.00
2018,07,02,00,48,0.00
2018,07,02,00,49,0.00
2018,07,02,00,50,0.00
2018,07,02,00,51,0.00
2018,07,02,00,52,0.00
2018,07,02,00,53,0.00
2018,07,02,00,54,0.00
2018,07,02,00,55,0.00
2018,07,02,00,56,0.00
2018,07,02,00,57,0.00
2018,07,02,00,58,0.00
2018,07,02,00,59,0.00
2018,07,02,01,00,0.00
2018,07,02,01,01,0.00
2018,07,02,01,02,0.00
2018,07,02,01,03,0.00
2018,07,02,01,04,0.00
2018,07,02,01,05,0.00
2018,07,02,01,06,0.00
2018,07,02,01,07,0.00
2018,07,02,01,08,0.00
2018,07,02,01,09,0.00
2018,07,02,01,10,0.00
2018,07,02,01,11,0.00
2018,07,02,01,12,0.00
2018,07,02,01,13,0.00
2018,07,02,01,14,0.00
2018,07,02,01,15,0.00
2018,07,02,01,16,0.00
2018,07,02,01,17,0.00
2018,07,02,01,18,0.00
2018,07,02,01,19,0.00
2018,07,02,01,20,0.00
2018,07,02,01,21,0.00
2018,07,02,01,22,0.00
2018,07,02,01,23,0.00
2018,07,02,01,24,0.00
2018,07,02,01,25,0.00
2018,07,02,01,26,0.00
2018,07,02,01,27,0.00
2018,07,02,01,28,0.00
2018,07,02,01,29,0.00
2018,07,02,01,30,0.00
2018,07,02,01,31,0.00
2018,07,02,01,32,0.00
2018,07,02,01,33,0.00
2018,07,02,01,34,0.00
2018,07,02,01,35,0.00
2018,07,02,01,36,0.00
2018,07,02,01,37,0.00
2018,07,02,01,38,0.00
2018,07,02,01,39,0.00
2018,07,02,01,40,0.00
2018,07,02,01,41,0.00
2018,07,02,01,42,0.00
2018,07,02,01,43,0.00
2018,07,02,01,44,0.00
2018,07,02,01,45,0.00
2018,07,02,01,46,0.00
2018,07,02,01,47,0.00
2018,07,02,01,48,0.00
2018,07,02,01,49,0.00
2018,07,02,01,50,0.00
2018,07,02,01,51,0.00
2018,07,02,01,52,0.00
2018,07,02,01,53,0.00
2018,07,02,01,54,0.00
2018,07,02,01,55,0.00
2018,07,02,01,56,0.00
2018,07,02,01,57,0.00
2018,07,02,01,58,0.00
2018,07,02,01,59,0.00
2018,07,02,02,00,0.00
2018,07,02,02,01,0.00
2018,07,02,02,02,0.00
2018,07,02,02,03,0.00
2018,07,02,02,04,0.00
2018,07,02,02,05,0.00
2018,07,02,02,06,0.00
2018,07,02,02,07,0.00
2018,07,02,02,08,0.00
2018,07,02,02,09,0.00
2018,07,02,02,10,0.00
2018,07,02,02,11,0.00
2018,07,02,02,12,0.00
2018,07,02,02,13,0.00
2018,07,02,02,14,0.00
2018,07,02,02,15,0.00
2018,07,02,02,16,0.00
2018,07,02,02,17,0.00
2018,07,02,02,18,0.00
2018,07,02,02,19,0.00
2018,07,02,02,20,0.00
2018,07,02,02,21,0.00
2018,07,02,02,22,0.00
2018,07,02,02,23,0.00
2018,07,02,02,24,0.00
2018,07,02,02,25,0.00
2018,07,02,02,26,0.00
2018,07,02,02,27,0.00
2018,07,02,02,28,0.00
2018,07,02,02,29,0.00
2018,07,02,02,30,0.00
2018,07,02,02,31,0.00
2018,07,02,02,32,0.00
2018,07,02,02,33,0.00
2018,07,02,02,34,0.00
2018,07,02,02,35,0.00
2018,07,02,02,36,0.00
2018,07,02,02,37,0.00
2018,07,02,02,38,0.00
2018,07,02,02,39,0.00
2018,07,02,02,40,0.00
2018,07,02,02,41,0.00
2018,07,02,02,42,0.00
2018,07,02,02,43,0.00
2018,07,02,02,44,0.00
2018,07,02,02,45,0.00
2018,07,02,02,46,0.00
2018,07,02,02,47,0.00
2018,07,02,02,48,0.00
2018,07,02,02,49,0.00
2018,07,02,02,50,0.00
2018,07,02,02,51,0.00
2018,07,02,02,52,0.00
2018,07,02,02,53,0.00
2018,07,02,02,54,0.00
2018,07,02,02,55,0.00
2018,07,02,02,56,0.00
2018,07,02,02,57,0.00
2018,07,02,02,58,0.00
2018,07,02,02,59,0.00
2018,07,02,03,00,0.00
2018,07,02,03,01,0.00
2018,07,02,03,02,0.00
2018,07,02,03,03,0.00
2018,07,02,03,04,0.00
2018,07,02,03,05,0.00
2018,07,02,03,06,0.00
2018,07,02,03,07,0.00
2018,07,02,03,08,0.00
2018,07,02,03,09,0.00
2018,07,02,03,10,0.00
2018,07,02,03,11,0.00
2018,07,02,03,12,0.00
2018,07,02,03,13,0.00
2018,07,02,03,14,0.00
2018,07,02,03,15,0.00
2018,07,02,03,16,0.00
2018,07,02,03,17,0.00
2018,07,02,03,18,0.00
2018,07,02,03,19,0.00
2018,07,02,03,20,0.00
2018,07,02,03,21,0.00
2018,07,02,03,22,0.00
2018,07,02,03,23,0.00
2018,07,02,03,24,0.00
2018,07,02,03,25,0.00
2018,07,02,03,26,0.00
2018,07,02,03,27,0.00
2018,07,02,03,28,0.00
2018,07,02,03,29,0.00
2018,07,02,03,30,0.00
2018,07,02,03,31,0.00
2018,07,02,03,32,0.00
2018,07,02,03,33,0.00
2018,07,02,03,34,0.00
2018,07,02,03,35,0.00
2018,07,02,03,36,0.00
2018,07,02,03,37,0.00
2018,07,02,03,38,0.00
2018,07,02,03,39,0.00
2018,07,02,03,40,0.00
2018,07,02,03,41,0.00
2018,07,02,03,42,0.00
2018,07,02,03,43,0.00
2018,07,02,03,44,0.00
2018,07,02,03,45,0.00
2018,07,02,03,46,0.00
2018,07,02,03,47,0.00
2018,07,02,03,48,0.00
2018,07,02,03,49,0.00
2018,07,02,03,50,0.00
2018,07,02,03,51,0.00
2018,07,02,03,52,0.00
2018,07,02,03,53,0.00
2018,07,02,03,54,0.00
2018,07,02,03,55,0.00
2018,07,02,03,56,0.00
2018,07,02,03,57,0.00
2018,07,02,03,58,0.00
2018,07,02,03,59,0.00
2018,07,02,04,00,0.00
2018,07,02,04,01,0.00
2018,07,02,04,02,0.00
2018,07,02,04,03,0.00
2018,07,02,04,04,0.00
2018,07,02,04,05,0.00
2018,07,02,04,06,0.00
2018,07,02,04,07,0.00
2018,07,02,04,08,0.00
2018,07,02,04,09,0.00
2018,07,02,04,10,0.00
2018,07,02,04,11,0.00
2018,07,02,04,12,0.00
2018,07,02,04,13,0.00
2018,07,02,04,14,0.00
2018,07,02,04,15,0.00
2018,07,02,04,16,0.00
2018,07,02,04,17,0.00
2018,07,02,04,18,0.00
2018,07,02,04,19,0.00
2018,07,02,04,20,0.00
2018,07,02,04,21,0.00
2018,07,02,04,22,0.00
2018,07,02,04,23,0.00
2018,07,02,04,24,0.00
2018,07,02,04,25,0.00
2018,07,02,04,26,0.00
2018,07,02,04,27,0.00
2018,07,02,04,28,0.00
2018,07,02,04,29,0.00
2018,07,02,04,30,0.00
2018,07,02,04,31,0.00
2018,07,02,04,32,0.00
2018,07,02,04,33,0.00
2018,07,02,04,34,0.00
2018,07,02,04,35,0.00
2018,07,02,04,36,0.00
2018,07,02,04,37,0.00
2018,07,02,04,38,0.00
2018,07,02,04,39,0.00
2018,07,02,04,40,0.00
2018,07,02,04,41,0.00
2018,07,02,04,42,0.00
2018,07,02,04,43,0.00
2018,07,02,04,44,0.00
2018,07,02,04,45,0.00
2018,07,02,04,46,0.00
2018,07,02,04,47,0.00
2018,07,02,04,48,0.00
2018,07,02,04,49,0.00
2018,07,02,04,50,0.00
2018,07,02,04,51,0.00
2018,07,02,04,52,0.00
2018,07,02,04,53,0.00
2018,07,02,04,54,0.00
2018,07,02,04,55,0.00
2018,07,02,04,56,0.00
2018,07,02,04,57,0.00
2018,07,02,04,58,0.00
2018,07,02,04,59,0.00
2018,07,02,05,00,0.00
2018,07,02,05,01,0.00
2018,07,02,05,02,0.00
2018,07,02,05,03,0.00
2018,07,02,05,04,0.00
2018,07,02,05,05,0.00
2018,07,02,05,06,0.00
2018,07,02,05,07,0.00
2018,07,02,05,08,0.00
2018,07,02,05,09,0.00
2018,07,02,05,10,0.00
2018,07,02,05,11,0.00
2018,07,02,05,12,0.00
2018,07,02,05,13,0.00
2018,07,02,05,14,0.00
2018,07,02,05,15,0.00
2018,07,02,05,16,0.00
2018,07,02,05,17,0.00
2018,07,02,05,18,0.00
2018,07,02,05,19,0.00
2018,07,02,05,20,0.00
2018,07,02,05,21,0.00
2018,07,02,05,22,0.00
2018,07,02,05,23,4.80
2018,07,02,05,24,5.10
2018,07,02,05,25,7.00
2018,07,02,05,26,7.40
2018,07,02,05,27,9.50
2018,07,02,05,28,11.00
2018,07,02,05,29,11.00
2018,07,02,05,30,11.00
2018,07,02,05,31,11.00
2018,07,02,05,32,11.00
2018,07,02,05,33,11.60
2018,07,02,05,34,12.00
2018,07,02,05,35,12.00
2018,07,02,05,36,12.00
2018,07,02,05,37,12.00
2018,07,02,05,38,12.00
2018,07,02,05,39,14.00
2018,07,02,05,40,14.50
2018,07,02,05,41,18.20
2018,07,02,05,42,19.00
2018,07,02,05,43,18.70
2018,07,02,05,44,17.20
2018,07,02,05,45,14.20
2018,07,02,05,46,12.00
2018,07,02,05,47,12.00
2018,07,02,05,48,11.40
2018,07,02,05,49,11.00
2018,07,02,05,50,11.00
2018,07,02,05,51,11.00
2018,07,02,05,52,9.20
2018,07,02,05,53,10.90
2018,07,02,05,54,11.00
2018,07,02,05,55,11.00
2018,07,02,05,56,11.00
2018,07,02,05,57,11.00
2018,07,02,05,58,11.00
2018,07,02,05,59,11.00
2018,07,02,06,00,11.00
2018,07,02,06,01,11.00
2018,07,02,06,02,11.00
2018,07,02,06,03,11.00
2018,07,02,06,04,11.00
2018,07,02,06,05,11.80
2018,07,02,06,06,12.00
2018,07,02,06,07,13.70
2018,07,02,06,08,15.90
2018,07,02,06,09,19.40
2018,07,02,06,10,23.40
2018,07,02,06,11,26.80
2018,07,02,06,12,30.50
2018,07,02,06,13,33.70
2018,07,02,06,14,42.30
2018,07,02,06,15,47.10
2018,07,02,06,16,45.50
2018,07,02,06,17,47.30
2018,07,02,06,18,46.00
2018,07,02,06,19,46.70
2018,07,02,06,20,50.00
2018,07,02,06,21,72.00
2018,07,02,06,22,60.60
2018,07,02,06,23,62.80
2018,07,02,06,24,83.00
2018,07,02,06,25,127.80
2018,07,02,06,26,158.80
2018,07,02,06,27,162.70
2018,07,02,06,28,165.00
2018,07,02,06,29,165.00
2018,07,02,06,30,165.00
2018,07,02,06,31,164.00
2018,07,02,06,32,164.10
2018,07,02,06,33,163.80
2018,07,02,06,34,164.40
2018,07,02,06,35,168.00
2018,07,02,06,36,174.70
2018,07,02,06,37,182.00
2018,07,02,06,38,185.90
2018,07,02,06,39,188.20
2018,07,02,06,40,191.70
2018,07,02,06,41,189.60
2018,07,02,06,42,185.90
2018,07,02,06,43,172.30
2018,07,02,06,44,137.40
2018,07,02,06,45,121.10
2018,07,02,06,46,148.70
2018,07,02,06,47,114.70
2018,07,02,06,48,79.80
2018,07,02,06,49,79.40
2018,07,02,06,50,77.20
2018,07,02,06,51,78.40
2018,07,02,06,52,83.30
2018,07,02,06,53,94.50
2018,07,02,06,54,178.30
2018,07,02,06,55,179.40
2018,07,02,06,56,136.00
2018,07,02,06,57,107.50
2018,07,02,06,58,111.00
2018,07,02,06,59,74.90
2018,07,02,07,00,62.90
2018,07,02,07,01,56.30
2018,07,02,07,02,51.90
2018,07,02,07,03,51.00
2018,07,02,07,04,53.00
2018,07,02,07,05,57.00
2018,07,02,07,06,59.60
2018,07,02,07,07,62.60
2018,07,02,07,08,63.00
2018,07,02,07,09,63.50
2018,07,02,07,10,81.60
2018,07,02,07,11,125.30
2018,07,02,07,12,132.50
2018,07,02,07,13,206.40
2018,07,02,07,14,268.40
2018,07,02,07,15,274.00
2018,07,02,07,16,277.50
2018,07,02,07,17,262.10
2018,07,02,07,18,230.70
2018,07,02,07,19,161.40
2018,07,02,07,20,134.00
2018,07,02,07,21,245.70
2018,07,02,07,22,272.00
2018,07,02,07,23,141.50
2018,07,02,07,24,61.70
2018,07,02,07,25,55.60
2018,07,02,07,26,52.60
2018,07,02,07,27,50.00
2018,07,02,07,28,46.70
2018,07,02,07,29,46.40
2018,07,02,07,30,47.90
2018,07,02,07,31,50.00
2018,07,02,07,32,52.70
2018,07,02,07,33,56.50
2018,07,02,07,34,60.90
2018,07,02,07,35,62.80
2018,07,02,07,36,63.00
2018,07,02,07,37,69.00
2018,07,02,07,38,78.20
2018,07,02,07,39,137.00
2018,07,02,07,40,164.10
2018,07,02,07,41,335.60
2018,07,02,07,42,328.00
2018,07,02,07,43,313.10
2018,07,02,07,44,322.00
2018,07,02,07,45,323.30
2018,07,02,07,46,327.50
2018,07,02,07,47,331.10
2018,07,02,07,48,333.20
2018,07,02,07,49,335.40
2018,07,02,07,50,334.50
2018,07,02,07,51,334.00
2018,07,02,07,52,334.00
2018,07,02,07,53,335.90
2018,07,02,07,54,339.20
2018,07,02,07,55,343.70
2018,07,02,07,56,349.30
2018,07,02,07,57,355.50
2018,07,02,07,58,354.70
2018,07,02,07,59,350.00
2018,07,02,08,00,225.70
2018,07,02,08,01,59.00
2018,07,02,08,02,64.90
2018,07,02,08,03,65.70
2018,07,02,08,04,84.80
2018,07,02,08,05,95.00
2018,07,02,08,06,95.00
2018,07,02,08,07,95.00
2018,07,02,08,08,381.70
2018,07,02,08,09,380.00
2018,07,02,08,10,350.70
2018,07,02,08,11,157.80
2018,07,02,08,12,121.00
2018,07,02,08,13,104.20
2018,07,02,08,14,115.90
2018,07,02,08,15,127.00
2018,07,02,08,16,127.00
2018,07,02,08,17,156.10
2018,07,02,08,18,178.00
2018,07,02,08,19,208.70
2018,07,02,08,20,223.00
2018,07,02,08,21,410.00
2018,07,02,08,22,450.50
2018,07,02,08,23,451.90
2018,07,02,08,24,457.20
2018,07,02,08,25,463.00
2018,07,02,08,26,471.70
2018,07,02,08,27,489.90
2018,07,02,08,28,521.20
2018,07,02,08,29,541.00
2018,07,02,08,30,413.30
2018,07,02,08,31,243.00
2018,07,02,08,32,424.70
2018,07,02,08,33,561.00
2018,07,02,08,34,561.00
2018,07,02,08,35,446.70
2018,07,02,08,36,411.00
2018,07,02,08,37,411.00
2018,07,02,08,38,510.00
2018,07,02,08,39,509.60
2018,07,02,08,40,501.30
2018,07,02,08,41,506.70
2018,07,02,08,42,523.00
2018,07,02,08,43,518.80
2018,07,02,08,44,482.00
2018,07,02,08,45,407.40
2018,07,02,08,46,308.00
2018,07,02,08,47,308.00
2018,07,02,08,48,449.10
2018,07,02,08,49,515.50
2018,07,02,08,50,506.00
2018,07,02,08,51,298.80
2018,07,02,08,52,250.00
2018,07,02,08,53,250.00
2018,07,02,08,54,363.10
2018,07,02,08,55,285.00
2018,07,02,08,56,285.00
2018,07,02,08,57,285.00
2018,07,02,08,58,418.60
2018,07,02,08,59,705.00
2018,07,02,09,00,705.00
2018,07,02,09,01,466.70
2018,07,02,09,02,232.90
2018,07,02,09,03,227.60
2018,07,02,09,04,232.00
2018,07,02,09,05,232.00
2018,07,02,09,06,211.80
2018,07,02,09,07,214.70
2018,07,02,09,08,283.60
2018,07,02,09,09,287.00
2018,07,02,09,10,287.00
2018,07,02,09,11,287.00
2018,07,02,09,12,287.00
2018,07,02,09,13,287.00
2018,07,02,09,14,273.30
2018,07,02,09,15,253.60
2018,07,02,09,16,259.50
2018,07,02,09,17,258.00
2018,07,02,09,18,255.00
2018,07,02,09,19,255.00
2018,07,02,09,20,249.70
2018,07,02,09,21,259.30
2018,07,02,09,22,269.80
2018,07,02,09,23,280.50
2018,07,02,09,24,238.30
2018,07,02,09,25,223.10
2018,07,02,09,26,210.20
2018,07,02,09,27,207.00
2018,07,02,09,28,207.00
2018,07,02,09,29,208.50
2018,07,02,09,30,213.10
2018,07,02,09,31,218.50
2018,07,02,09,32,224.40
2018,07,02,09,33,237.50
2018,07,02,09,34,278.80
2018,07,02,09,35,323.20
2018,07,02,09,36,343.30
2018,07,02,09,37,299.70
2018,07,02,09,38,387.20
2018,07,02,09,39,371.00
2018,07,02,09,40,393.50
2018,07,02,09,41,536.00
2018,07,02,09,42,580.30
2018,07,02,09,43,722.00
2018,07,02,09,44,722.00
2018,07,02,09,45,799.10
2018,07,02,09,46,902.00
2018,07,02,09,47,585.40
2018,07,02,09,48,354.80
2018,07,02,09,49,359.00
2018,07,02,09,50,359.00
2018,07,02,09,51,483.70
2018,07,02,09,52,513.00
2018,07,02,09,53,513.00
2018,07,02,09,54,513.00
2018,07,02,09,55,513.00
2018,07,02,09,56,513.00
2018,07,02,09,57,470.40
2018,07,02,09,58,325.10
2018,07,02,09,59,295.70
2018,07,02,10,00,273.00
2018,07,02,10,01,260.80
2018,07,02,10,02,253.60
2018,07,02,10,03,256.60
2018,07,02,10,04,247.30
2018,07,02,10,05,217.70
2018,07,02,10,06,196.00
2018,07,02,10,07,186.10
2018,07,02,10,08,178.30
2018,07,02,10,09,173.90
2018,07,02,10,10,170.20
2018,07,02,10,11,164.00
2018,07,02,10,12,159.00
2018,07,02,10,13,155.70
2018,07,02,10,14,154.20
2018,07,02,10,15,152.10
2018,07,02,10,16,150.00
2018,07,02,10,17,149.00
2018,07,02,10,18,149.00
2018,07,02,10,19,150.40
2018,07,02,10,20,154.80
2018,07,02,10,21,161.70
2018,07,02,10,22,172.50
2018,07,02,10,23,185.40
2018,07,02,10,24,199.50
2018,07,02,10,25,210.30
2018,07,02,10,26,219.30
2018,07,02,10,27,226.70
2018,07,02,10,28,234.20
2018,07,02,10,29,243.20
2018,07,02,10,30,253.00
2018,07,02,10,31,260.50
2018,07,02,10,32,270.90
2018,07,02,10,33,284.70
2018,07,02,10,34,307.00
2018,07,02,10,35,326.40
2018,07,02,10,36,344.60
2018,07,02,10,37,361.70
2018,07,02,10,38,384.00
2018,07,02,10,39,433.50
2018,07,02,10,40,427.80
2018,07,02,10,41,459.20
2018,07,02,10,42,490.00
2018,07,02,10,43,690.80
2018,07,02,10,44,1093.60
2018,07,02,10,45,1073.90
2018,07,02,10,46,1114.30
2018,07,02,10,47,1120.40
2018,07,02,10,48,1091.50
2018,07,02,10,49,1074.00
2018,07,02,10,50,673.20
2018,07,02,10,51,548.00
2018,07,02,10,52,479.80
2018,07,02,10,53,406.10
2018,07,02,10,54,348.20
2018,07,02,10,55,388.50
2018,07,02,10,56,373.00
2018,07,02,10,57,423.00
2018,07,02,10,58,487.00
2018,07,02,10,59,487.00
2018,07,02,11,00,487.00
2018,07,02,11,01,487.00
2018,07,02,11,02,487.00
2018,07,02,11,03,487.00
2018,07,02,11,04,355.40
2018,07,02,11,05,284.10
2018,07,02,11,06,279.40
2018,07,02,11,07,304.70
2018,07,02,11,08,309.00
2018,07,02,11,09,915.60
2018,07,02,11,10,879.10
2018,07,02,11,11,956.00
2018,07,02,11,12,795.30
2018,07,02,11,13,276.50
2018,07,02,11,14,267.80
2018,07,02,11,15,265.10
2018,07,02,11,16,255.50
2018,07,02,11,17,248.10
2018,07,02,11,18,244.10
2018,07,02,11,19,243.70
2018,07,02,11,20,247.00
2018,07,02,11,21,272.30
2018,07,02,11,22,334.10
2018,07,02,11,23,304.00
2018,07,02,11,24,350.00
2018,07,02,11,25,350.00
2018,07,02,11,26,350.00
2018,07,02,11,27,512.90
2018,07,02,11,28,1028.90
2018,07,02,11,29,1012.70
2018,07,02,11,30,997.10
2018,07,02,11,31,973.00
2018,07,02,11,32,943.10
2018,07,02,11,33,920.90
2018,07,02,11,34,905.80
2018,07,02,11,35,891.30
2018,07,02,11,36,886.40
2018,07,02,11,37,884.30
2018,07,02,11,38,901.10
2018,07,02,11,39,933.70
2018,07,02,11,40,868.00
2018,07,02,11,41,737.50
2018,07,02,11,42,185.10
2018,07,02,11,43,195.30
2018,07,02,11,44,209.20
2018,07,02,11,45,230.40
2018,07,02,11,46,251.10
2018,07,02,11,47,276.40
2018,07,02,11,48,307.30
2018,07,02,11,49,333.70
2018,07,02,11,50,365.40
2018,07,02,11,51,373.00
2018,07,02,11,52,373.00
2018,07,02,11,53,373.00
2018,07,02,11,54,378.50
2018,07,02,11,55,488.40
2018,07,02,11,56,484.60
2018,07,02,11,57,484.60
2018,07,02,11,58,462.00
2018,07,02,11,59,464.00
2018,07,02,12,00,464.00
2018,07,02,12,01,464.00
2018,07,02,12,02,442.90
2018,07,02,12,03,427.00
2018,07,02,12,04,427.00
2018,07,02,12,05,427.00
2018,07,02,12,06,430.20
2018,07,02,12,07,447.40
2018,07,02,12,08,450.00
2018,07,02,12,09,1117.30
2018,07,02,12,10,1103.30
2018,07,02,12,11,1108.30
2018,07,02,12,12,1148.00
2018,07,02,12,13,1148.00
2018,07,02,12,14,1121.70
2018,07,02,12,15,1070.00
2018,07,02,12,16,1058.00
2018,07,02,12,17,1058.00
2018,07,02,12,18,1036.30
2018,07,02,12,19,1008.70
2018,07,02,12,20,1003.50
2018,07,02,12,21,999.10
2018,07,02,12,22,985.90
2018,07,02,12,23,977.30
2018,07,02,12,24,979.20
2018,07,02,12,25,983.70
2018,07,02,12,26,988.60
2018,07,02,12,27,991.50
2018,07,02,12,28,992.10
2018,07,02,12,29,990.00
2018,07,02,12,30,989.10
2018,07,02,12,31,989.00
2018,07,02,12,32,990.00
2018,07,02,12,33,987.50
2018,07,02,12,34,987.40
2018,07,02,12,35,988.00
2018,07,02,12,36,999.30
2018,07,02,12,37,1014.10
2018,07,02,12,38,1029.30
2018,07,02,12,39,1037.10
2018,07,02,12,40,1038.70
2018,07,02,12,41,1040.10
2018,07,02,12,42,1059.00
2018,07,02,12,43,1083.00
2018,07,02,12,44,1083.00
2018,07,02,12,45,1089.00
2018,07,02,12,46,1085.50
2018,07,02,12,47,1067.10
2018,07,02,12,48,1065.10
2018,07,02,12,49,1088.80
2018,07,02,12,50,1099.00
2018,07,02,12,51,549.30
2018,07,02,12,52,403.60
2018,07,02,12,53,350.50
2018,07,02,12,54,286.60
2018,07,02,12,55,328.60
2018,07,02,12,56,382.50
2018,07,02,12,57,325.00
2018,07,02,12,58,440.80
2018,07,02,12,59,689.00
2018,07,02,13,00,689.00
2018,07,02,13,01,910.00
2018,07,02,13,02,1125.90
2018,07,02,13,03,1135.10
2018,07,02,13,04,1134.00
2018,07,02,13,05,1134.00
2018,07,02,13,06,533.30
2018,07,02,13,07,392.00
2018,07,02,13,08,728.20
2018,07,02,13,09,788.00
2018,07,02,13,10,788.00
2018,07,02,13,11,788.00
2018,07,02,13,12,659.90
2018,07,02,13,13,248.70
2018,07,02,13,14,247.50
2018,07,02,13,15,259.00
2018,07,02,13,16,271.00
2018,07,02,13,17,271.00
2018,07,02,13,18,263.00
2018,07,02,13,19,258.00
2018,07,02,13,20,840.90
2018,07,02,13,21,1026.20
2018,07,02,13,22,1021.00
2018,07,02,13,23,1007.60
2018,07,02,13,24,994.50
2018,07,02,13,25,982.40
2018,07,02,13,26,972.00
2018,07,02,13,27,965.30
2018,07,02,13,28,959.10
2018,07,02,13,29,997.00
2018,07,02,13,30,997.00
2018,07,02,13,31,757.00
2018,07,02,13,32,517.00
2018,07,02,13,33,771.40
2018,07,02,13,34,917.10
2018,07,02,13,35,911.20
2018,07,02,13,36,909.40
2018,07,02,13,37,911.60
2018,07,02,13,38,912.00
2018,07,02,13,39,912.10
2018,07,02,13,40,914.00
2018,07,02,13,41,913.40
2018,07,02,13,42,912.20
2018,07,02,13,43,918.20
2018,07,02,13,44,927.60
2018,07,02,13,45,946.60
2018,07,02,13,46,962.00
2018,07,02,13,47,962.00
2018,07,02,13,48,934.80
2018,07,02,13,49,913.00
2018,07,02,13,50,911.00
2018,07,02,13,51,911.00
2018,07,02,13,52,567.30
2018,07,02,13,53,513.00
2018,07,02,13,54,513.00
2018,07,02,13,55,564.50
2018,07,02,13,56,891.80
2018,07,02,13,57,894.00
2018,07,02,13,58,891.00
2018,07,02,13,59,890.20
2018,07,02,14,00,889.00
2018,07,02,14,01,886.50
2018,07,02,14,02,882.90
2018,07,02,14,03,881.40
2018,07,02,14,04,879.60
2018,07,02,14,05,879.00
2018,07,02,14,06,877.40
2018,07,02,14,07,877.00
2018,07,02,14,08,874.10
2018,07,02,14,09,874.90
2018,07,02,14,10,872.00
2018,07,02,14,11,872.00
2018,07,02,14,12,872.50
2018,07,02,14,13,872.70
2018,07,02,14,14,870.00
2018,07,02,14,15,870.00
2018,07,02,14,16,870.00
2018,07,02,14,17,868.30
2018,07,02,14,18,868.90
2018,07,02,14,19,870.00
2018,07,02,14,20,871.50
2018,07,02,14,21,872.00
2018,07,02,14,22,873.70
2018,07,02,14,23,878.80
2018,07,02,14,24,887.80
2018,07,02,14,25,923.00
2018,07,02,14,26,923.00
2018,07,02,14,27,914.70
2018,07,02,14,28,890.30
2018,07,02,14,29,895.00
2018,07,02,14,30,571.90
2018,07,02,14,31,141.00
2018,07,02,14,32,141.00
2018,07,02,14,33,591.00
2018,07,02,14,34,860.90
2018,07,02,14,35,855.00
2018,07,02,14,36,853.20
2018,07,02,14,37,853.00
2018,07,02,14,38,853.00
2018,07,02,14,39,852.90
2018,07,02,14,40,850.50
2018,07,02,14,41,845.30
2018,07,02,14,42,842.00
2018,07,02,14,43,840.70
2018,07,02,14,44,837.60
2018,07,02,14,45,837.40
2018,07,02,14,46,837.50
2018,07,02,14,47,835.90
2018,07,02,14,48,833.80
2018,07,02,14,49,833.00
2018,07,02,14,50,831.50
2018,07,02,14,51,828.60
2018,07,02,14,52,829.70
2018,07,02,14,53,830.00
2018,07,02,14,54,827.90
2018,07,02,14,55,825.70
2018,07,02,14,56,823.80
2018,07,02,14,57,822.00
2018,07,02,14,58,819.00
2018,07,02,14,59,817.90
2018,07,02,15,00,816.00
2018,07,02,15,01,815.00
2018,07,02,15,02,811.70
2018,07,02,15,03,810.00
2018,07,02,15,04,809.30
2018,07,02,15,05,807.50
2018,07,02,15,06,805.40
2018,07,02,15,07,805.00
2018,07,02,15,08,803.10
2018,07,02,15,09,802.90
2018,07,02,15,10,800.00
2018,07,02,15,11,799.20
2018,07,02,15,12,795.80
2018,07,02,15,13,794.40
2018,07,02,15,14,792.20
2018,07,02,15,15,791.00
2018,07,02,15,16,789.50
2018,07,02,15,17,788.00
2018,07,02,15,18,784.30
2018,07,02,15,19,783.40
2018,07,02,15,20,782.50
2018,07,02,15,21,780.40
2018,07,02,15,22,780.00
2018,07,02,15,23,779.00
2018,07,02,15,24,776.90
2018,07,02,15,25,775.00
2018,07,02,15,26,774.60
2018,07,02,15,27,772.20
2018,07,02,15,28,769.40
2018,07,02,15,29,768.00
2018,07,02,15,30,768.00
2018,07,02,15,31,767.00
2018,07,02,15,32,764.40
2018,07,02,15,33,761.80
2018,07,02,15,34,761.00
2018,07,02,15,35,759.50
2018,07,02,15,36,758.20
2018,07,02,15,37,758.90
2018,07,02,15,38,756.10
2018,07,02,15,39,753.90
2018,07,02,15,40,751.90
2018,07,02,15,41,750.20
2018,07,02,15,42,746.50
2018,07,02,15,43,744.70
2018,07,02,15,44,744.00
2018,07,02,15,45,743.10
2018,07,02,15,46,739.90
2018,07,02,15,47,738.00
2018,07,02,15,48,738.00
2018,07,02,15,49,734.60
2018,07,02,15,50,733.00
2018,07,02,15,51,731.40
2018,07,02,15,52,729.30
2018,07,02,15,53,728.00
2018,07,02,15,54,724.10
2018,07,02,15,55,725.50
2018,07,02,15,56,722.00
2018,07,02,15,57,721.30
2018,07,02,15,58,718.40
2018,07,02,15,59,715.90
2018,07,02,16,00,713.10
2018,07,02,16,01,711.00
2018,07,02,16,02,708.90
2018,07,02,16,03,707.40
2018,07,02,16,04,707.00
2018,07,02,16,05,704.00
2018,07,02,16,06,700.60
2018,07,02,16,07,700.00
2018,07,02,16,08,698.10
2018,07,02,16,09,695.90
2018,07,02,16,10,693.60
2018,07,02,16,11,691.00
2018,07,02,16,12,690.00
2018,07,02,16,13,687.00
2018,07,02,16,14,685.90
2018,07,02,16,15,683.10
2018,07,02,16,16,683.00
2018,07,02,16,17,681.10
2018,07,02,16,18,677.80
2018,07,02,16,19,675.60
2018,07,02,16,20,673.50
2018,07,02,16,21,671.40
2018,07,02,16,22,670.10
2018,07,02,16,23,668.10
2018,07,02,16,24,665.90
2018,07,02,16,25,663.90
2018,07,02,16,26,662.60
2018,07,02,16,27,660.00
2018,07,02,16,28,656.70
2018,07,02,16,29,655.20
2018,07,02,16,30,652.30
2018,07,02,16,31,648.50
2018,07,02,16,32,647.00
2018,07,02,16,33,647.00
2018,07,02,16,34,645.60
2018,07,02,16,35,643.50
2018,07,02,16,36,642.20
2018,07,02,16,37,638.60
2018,07,02,16,38,636.20
2018,07,02,16,39,633.00
2018,07,02,16,40,632.40
2018,07,02,16,41,628.80
2018,07,02,16,42,627.00
2018,07,02,16,43,623.40
2018,07,02,16,44,621.60
2018,07,02,16,45,620.10
2018,07,02,16,46,618.00
2018,07,02,16,47,615.90
2018,07,02,16,48,613.10
2018,07,02,16,49,610.70
2018,07,02,16,50,607.10
2018,07,02,16,51,606.00
2018,07,02,16,52,603.40
2018,07,02,16,53,601.10
2018,07,02,16,54,598.00
2018,07,02,16,55,597.50
2018,07,02,16,56,593.60
2018,07,02,16,57,591.80
2018,07,02,16,58,590.30
2018,07,02,16,59,588.20
2018,07,02,17,00,585.70
2018,07,02,17,01,583.00
2018,07,02,17,02,580.90
2018,07,02,17,03,578.80
2018,07,02,17,04,575.90
2018,07,02,17,05,573.50